CW6344 Weather Reports


time (UTC)temp
C
wind
direction
speed
KPH
gust
KPH
rain 1hr
cm
rain 24hr
cm
rain mn
cm
humidity
%
barometer
mb
20260906034409 21 132 0.0 0.0 0.00 0.00 0.00 90 1012.5
20260906033409 21 132 0.0 0.0 0.00 0.00 0.00 90 1012.5
20260906032409 21 132 0.0 0.0 0.00 0.00 0.00 90 1012.6
20260906031409 21 132 0.0 0.0 0.00 0.00 0.00 89 1012.5
20260906030440 21 132 0.0 0.0 0.00 0.00 0.00 89 1012.4
20260906025410 21 132 0.0 0.0 0.00 0.00 0.00 89 1012.4
20260906024409 21 132 0.0 0.0 0.00 0.00 0.00 88 1012.4
20260906023410 21 132 0.0 0.0 0.00 0.00 0.00 88 1012.5
20260906022410 22 132 0.0 0.0 0.00 0.00 0.00 87 1012.5
20260906021409 22 132 0.0 0.0 0.00 0.00 0.00 87 1012.5
20260906020409 22 132 0.0 0.0 0.00 0.00 0.00 87 1012.5
20260906015410 22 132 0.0 0.0 0.00 0.00 0.00 87 1012.5
20260906014410 22 132 0.0 0.0 0.00 0.00 0.00 86 1012.3
20260906013410 22 132 0.0 0.0 0.00 0.00 0.00 86 1012.2
20260906012409 22 132 0.0 0.0 0.00 0.00 0.00 86 1012.2
20260906011410 22 132 0.0 0.0 0.00 0.00 0.00 87 1012.0
20260906010409 22 132 0.0 0.0 0.00 0.00 0.00 87 1011.8
20260906005411 22 132 0.0 0.0 0.00 0.00 0.00 86 1011.6
20260906004410 22 132 0.0 0.0 0.00 0.00 0.00 86 1011.6
20260906003410 23 132 0.0 0.0 0.00 0.00 0.00 86 1011.5
20260906002440 22 132 0.0 0.0 0.00 0.00 0.00 86 1011.4
20260906001410 23 132 0.0 0.0 0.00 0.00 0.00 86 1011.5
20260906000411 23 132 0.0 0.0 0.00 0.00 0.00 85 1011.3
20260905235410 23 132 0.0 0.0 0.00 0.00 0.00 85 1011.5
20260905234440 23 132 0.0 0.0 0.00 0.00 0.00 85 1011.4
20260905233410 23 132 0.0 0.0 0.00 0.00 0.00 84 1011.4
20260905232409 23 128 0.0 0.0 0.00 0.00 0.00 84 1011.4
20260905231410 23 310 0.0 0.0 0.00 0.00 0.00 84 1011.4
20260905230410 24 284 0.0 0.0 0.00 0.00 0.00 82 1011.4
20260905225410 24 284 0.0 0.0 0.00 0.00 0.00 83 1011.4
20260905224410 24 284 0.0 0.0 0.00 0.00 0.00 82 1011.2
20260905223410 25 284 0.0 0.0 0.00 0.00 0.00 82 1011.1
20260905222410 25 284 0.0 0.0 0.00 0.03 0.00 83 1010.9
20260905220410 25 284 0.0 0.0 0.00 0.03 0.00 79 1010.8
20260905214410 25 284 0.0 0.0 0.00 0.03 0.00 79 1011.0
20260905213410 25 284 0.0 0.0 0.00 0.03 0.00 79 1011.0
20260905212410 25 284 0.0 0.0 0.00 0.03 0.00 79 1010.9
20260905210410 26 284 0.0 0.0 0.00 0.03 0.00 77 1010.7
20260905205410 26 285 0.0 3.2 0.00 0.03 0.00 76 1010.8
20260905204410 27 5 0.0 1.6 0.00 0.03 0.00 74 1010.5
20260905203410 27 315 4.8 4.8 0.00 0.03 0.00 75 1010.5
20260905202410 27 311 0.0 3.2 0.00 0.03 0.00 72 1010.6
20260905201410 27 261 0.0 0.0 0.00 0.03 0.00 73 1010.6
20260905200410 26 360 0.0 1.6 0.00 0.03 0.00 72 1010.7
20260905194410 26 19 0.0 0.0 0.00 0.03 0.00 78 1010.6
20260905193410 26 250 0.0 3.2 0.00 0.03 0.00 78 1010.5
20260905192410 26 225 0.0 0.0 0.00 0.03 0.00 76 1010.4
20260905191410 26 225 0.0 0.0 0.00 0.03 0.00 77 1010.6
20260905190410 26 36 0.0 0.0 0.00 0.03 0.00 77 1010.6
20260905185410 25 70 0.0 0.0 0.00 0.03 0.00 79 1010.3
20260905184410 25 70 0.0 0.0 0.00 0.03 0.00 80 1010.3
20260905182440 25 320 0.0 0.0 0.00 0.03 0.00 82 1011.2
20260905181410 25 320 0.0 0.0 0.00 0.03 0.00 84 1011.4
20260905180410 25 318 0.0 0.0 0.00 0.03 0.00 82 1012.1
20260905175410 25 318 0.0 0.0 0.00 0.03 0.00 82 1012.2
20260905174410 26 318 0.0 0.0 0.00 0.03 0.00 80 1012.4
20260905173410 25 318 0.0 0.0 0.00 0.03 0.00 81 1012.4
20260905172410 26 318 0.0 0.0 0.00 0.03 0.00 81 1012.3
20260905171410 26 318 0.0 0.0 0.00 0.03 0.00 79 1012.4
20260905170440 26 306 0.0 1.6 0.00 0.03 0.00 77 1012.3
20260905165410 26 350 0.0 1.6 0.00 0.03 0.00 77 1012.4
20260905164510 26 292 1.6 4.8 0.00 0.03 0.00 77 1012.3
20260905162410 26 265 0.0 4.8 0.00 0.03 0.00 79 1012.0
20260905160410 26 279 0.0 4.8 0.00 0.03 0.00 80 1012.3
20260905155410 26 296 1.6 3.2 0.00 0.03 0.00 81 1012.2
20260905154410 26 67 0.0 0.0 0.00 0.03 0.00 82 1012.2
20260905153410 26 301 0.0 3.2 0.00 0.03 0.00 83 1012.2
20260905152410 26 64 1.6 4.8 0.00 0.03 0.00 82 1012.3
20260905151410 26 286 3.2 3.2 0.00 0.03 0.00 83 1012.3
20260905150410 26 286 1.6 8.0 0.00 0.03 0.00 82 1012.3
20260905144410 26 276 4.8 4.8 0.00 0.03 0.00 82 1012.3
20260905143410 26 113 0.0 3.2 0.00 0.03 0.00 81 1012.1
20260905142410 26 327 4.8 4.8 0.00 0.03 0.00 83 1011.8
20260905140440 26 146 0.0 8.0 0.00 0.03 0.00 82 1011.8
20260905135410 26 282 0.0 0.0 0.00 0.03 0.00 83 1011.9
20260905134410 26 267 3.2 3.2 0.00 0.03 0.00 82 1011.9
20260905133410 25 242 0.0 0.0 0.00 0.03 0.00 84 1012.0
20260905132410 25 242 0.0 0.0 0.00 0.03 0.00 84 1011.8
20260905131410 25 186 0.0 0.0 0.00 0.03 0.00 83 1011.7
20260905130410 25 259 0.0 4.8 0.00 0.03 0.00 83 1011.7
20260905124410 25 284 0.0 0.0 0.00 0.03 0.00 84 1011.7
20260905123410 25 316 1.6 1.6 0.00 0.03 0.00 85 1011.7
20260905122410 25 5 0.0 0.0 0.00 0.03 0.00 85 1011.7
20260905121410 24 28 1.6 1.6 0.00 0.03 0.00 85 1011.7
20260905120410 24 269 0.0 0.0 0.00 0.03 0.00 86 1011.6
20260905115410 24 269 0.0 1.6 0.00 0.03 0.00 86 1011.7
20260905114410 24 299 0.0 0.0 0.00 0.03 0.00 86 1011.5
20260905112410 23 323 0.0 0.0 0.00 0.03 0.00 88 1011.3
20260905110410 23 333 0.0 0.0 0.00 0.03 0.00 89 1011.1
20260905105410 22 338 0.0 0.0 0.00 0.03 0.00 90 1011.0
20260905104410 22 321 0.0 0.0 0.00 0.03 0.00 90 1011.1
20260905103410 22 307 0.0 6.4 0.00 0.03 0.00 90 1010.9
20260905102510 22 302 0.0 0.0 0.00 0.03 0.00 90 1010.8
20260905101410 22 302 0.0 0.0 0.00 0.03 0.00 90 1010.7
20260905100410 22 302 0.0 0.0 0.00 0.03 0.00 89 1010.7
20260905095410 22 302 0.0 0.0 0.00 0.03 0.00 88 1010.6
20260905094410 23 302 0.0 0.0 0.00 0.03 0.00 88 1010.5
20260905093410 23 302 0.0 1.6 0.00 0.03 0.00 88 1010.5
20260905092410 23 303 0.0 4.8 0.00 0.03 0.00 87 1010.5
20260905091410 23 209 0.0 0.0 0.00 0.03 0.00 88 1010.5
20260905090410 23 269 0.0 0.0 0.00 0.03 0.00 88 1010.5
20260905085410 23 269 0.0 0.0 0.00 0.03 0.00 88 1010.5
20260905084410 23 269 0.0 1.6 0.00 0.03 0.00 88 1010.5
20260905083410 23 273 0.0 4.8 0.00 0.03 0.00 88 1010.6
20260905082410 23 292 0.0 8.0 0.00 0.03 0.00 89 1010.8
20260905081410 23 254 0.0 0.0 0.00 0.03 0.00 89 1010.7
20260905080410 23 256 0.0 0.0 0.00 0.03 0.00 90 1010.8
20260905075410 23 303 0.0 1.6 0.00 0.03 0.00 90 1010.9
20260905074410 23 291 1.6 3.2 0.00 0.03 0.00 91 1010.8
20260905073410 23 279 0.0 1.6 0.00 0.03 0.00 91 1010.9
20260905072411 23 185 0.0 0.0 0.00 0.03 0.00 91 1011.0
20260905070411 23 185 0.0 0.0 0.00 0.03 0.00 91 1010.9
20260905065411 23 204 0.0 0.0 0.00 0.03 0.00 91 1011.1
20260905064441 23 207 0.0 0.0 0.00 0.03 0.00 91 1011.2
20260905063411 23 206 0.0 0.0 0.00 0.03 0.00 91 1011.3
20260905062411 23 196 0.0 3.2 0.00 0.03 0.00 90 1011.2
20260905061411 23 246 0.0 0.0 0.00 0.03 0.00 90 1011.2
20260905060411 23 246 0.0 0.0 0.00 0.08 0.00 89 1011.2
20260905054511 23 245 0.0 0.0 0.00 0.18 0.00 89 1011.5
20260905053410 23 207 0.0 1.6 0.00 0.64 0.00 89 1011.7
20260905052411 23 209 0.0 1.6 0.00 1.30 0.00 89 1011.8
20260905051411 23 223 0.0 1.6 0.00 2.11 0.00 88 1011.9
20260905050411 23 221 0.0 0.0 0.00 3.33 0.00 88 1012.0
20260905044441 24 229 0.0 1.6 0.00 3.71 0.00 88 1012.2
20260905043411 23 225 0.0 3.2 0.00 3.71 0.00 89 1012.1
20260905042411 24 278 0.0 0.0 0.00 3.71 0.00 89 1012.2
20260905041411 24 278 0.0 3.2 0.00 3.89 0.00 89 1012.3
20260905040511 24 198 0.0 0.0 0.00 4.06 4.06 89 1012.4